Simultaneous Nadir Overpasses (SNOs) Predictions

Prediction of SNOs between AQUA and GOES-15 Satellite Orbit:

Table of predicted SNOs for the next 14.0 days since TLE Epoch: 11/29/2014
Index Date Time (AQUA) AQUA Lat,Lon GOES-15 Lat,Lon Distance(km) Time Diff (sec)
1 11/29/2014 10:38:16 0.09,-135.63 -0.03,-135.20 50.03 80
2 12/01/2014 10:26:02 -0.59,-132.67 -0.03,-135.24 292.93 80
3 12/01/2014 22:47:24 -0.53,-137.85 0.05,-135.22 299.83 80
4 12/03/2014 22:35:09 0.14,-134.88 0.04,-135.26 42.98 80
5 12/05/2014 22:22:53 0.73,-131.89 0.03,-135.29 385.51 80
6 12/06/2014 10:44:07 0.31,-137.06 -0.05,-135.33 195.81 80
7 12/08/2014 10:31:50 -0.33,-134.07 -0.05,-135.36 146.42 80
8 12/08/2014 22:53:13 -0.75,-139.26 0.07,-135.33 446.98 80
9 12/10/2014 10:19:32 -0.95,-131.09 -0.04,-135.38 488.52 80
10 12/10/2014 22:40:55 -0.12,-136.28 0.06,-135.35 104.79 80
11 12/12/2014 22:28:36 0.50,-133.29 0.06,-135.37 237.27 80




NCC Satellite Simultaneous Nadir Overpasses (SNOs) Prediction Service
